| time (UTC) | temp F | wind direction | speed MPH | gust MPH | rain 1hr in | rain 24hr in | rain mn in | humidity % | barometer mb |
| 20260906133044 | 52 | 292 | 3.0 | 5.0 | 0.00 | 0.25 | 0.03 | 96 | 1020.2 |
| 20260906131543 | 52 | 292 | 2.0 | 5.0 | 0.00 | 0.25 | 0.03 | 96 | 1019.9 |
| 20260906130040 | 52 | 283 | 3.0 | 10.0 | 0.00 | 0.25 | 0.03 | 96 | 1020.6 |
| 20260906124544 | 52 | 313 | 9.0 | 14.0 | 0.00 | 0.25 | 0.03 | 96 | 1020.5 |
| 20260906123109 | 52 | 292 | 9.0 | 16.0 | 0.00 | 0.25 | 0.03 | 96 | 1020.8 |
| 20260906121541 | 52 | 38 | 6.0 | 10.0 | 0.00 | 0.25 | 0.03 | 96 | 1020.8 |
| 20260906120037 | 52 | 41 | 3.0 | 5.0 | 0.00 | 0.25 | 0.03 | 96 | 1020.9 |
| 20260906114536 | 51 | 41 | 2.0 | 4.0 | 0.00 | 0.25 | 0.03 | 96 | 1020.8 |
| 20260906113040 | 51 | 41 | 3.0 | 6.0 | 0.00 | 0.25 | 0.03 | 96 | 1020.4 |
| 20260906111535 | 51 | 34 | 5.0 | 10.0 | 0.00 | 0.25 | 0.03 | 96 | 1020.4 |
| 20260906110034 | 51 | 33 | 5.0 | 10.0 | 0.00 | 0.25 | 0.03 | 96 | 1020.4 |
| 20260906104532 | 51 | 17 | 3.0 | 6.0 | 0.00 | 0.25 | 0.03 | 96 | 1020.6 |
| 20260906103031 | 52 | 30 | 6.0 | 10.0 | 0.00 | 0.25 | 0.03 | 96 | 1020.8 |
| 20260906101530 | 51 | 355 | 5.0 | 10.0 | 0.00 | 0.25 | 0.03 | 96 | 1020.8 |
| 20260906100029 | 51 | 325 | 2.0 | 5.0 | 0.00 | 0.25 | 0.03 | 96 | 1021.2 |
| 20260906094528 | 51 | 339 | 7.0 | 13.0 | 0.00 | 0.25 | 0.03 | 96 | 1021.0 |
| 20260906093026 | 51 | 325 | 2.0 | 9.0 | 0.00 | 0.25 | 0.03 | 96 | 1021.2 |
| 20260906091530 | 52 | 322 | 1.0 | 9.0 | 0.00 | 0.25 | 0.03 | 96 | 1021.9 |
| 20260906090025 | 51 | 335 | 7.0 | 13.0 | 0.00 | 0.25 | 0.03 | 96 | 1021.6 |
| 20260906084524 | 51 | 333 | 9.0 | 12.0 | 0.00 | 0.25 | 0.03 | 96 | 1021.6 |
| 20260906083032 | 51 | 321 | 8.0 | 14.0 | 0.00 | 0.25 | 0.03 | 95 | 1021.4 |
| 20260906081522 | 51 | 307 | 7.0 | 14.0 | 0.00 | 0.25 | 0.03 | 95 | 1021.7 |
| 20260906080028 | 51 | 346 | 11.0 | 16.0 | 0.00 | 0.25 | 0.03 | 95 | 1021.7 |
| 20260906074518 | 51 | 338 | 8.0 | 15.0 | 0.00 | 0.25 | 0.03 | 95 | 1021.6 |
| 20260906073018 | 51 | 302 | 9.0 | 15.0 | 0.01 | 0.25 | 0.03 | 95 | 1022.0 |
| 20260906071515 | 51 | 302 | 11.0 | 16.0 | 0.03 | 0.25 | 0.03 | 95 | 1022.1 |
| 20260906070012 | 51 | 311 | 10.0 | 14.0 | 0.03 | 0.25 | 0.03 | 94 | 1022.1 |
| 20260906064508 | 52 | 283 | 7.0 | 13.0 | 0.03 | 0.25 | 0.03 | 94 | 1023.0 |
| 20260906063007 | 52 | 244 | 3.0 | 7.0 | 0.02 | 0.24 | 0.02 | 94 | 1023.1 |
| 20260906061505 | 52 | 259 | 7.0 | 12.0 | 0.06 | 0.22 | 0.00 | 94 | 1023.1 |
| 20260906060002 | 52 | 277 | 7.0 | 10.0 | 0.07 | 0.22 | 0.22 | 93 | 1022.8 |
| 20260906054501 | 52 | 283 | 6.0 | 10.0 | 0.07 | 0.22 | 0.22 | 93 | 1022.5 |
| 20260906053001 | 52 | 289 | 8.0 | 11.0 | 0.07 | 0.22 | 0.22 | 93 | 1022.2 |
| 20260906051503 | 53 | 224 | 6.0 | 9.0 | 0.03 | 0.16 | 0.16 | 92 | 1023.9 |
| 20260906050059 | 53 | 251 | 3.0 | 7.0 | 0.08 | 0.15 | 0.15 | 91 | 1022.7 |
| 20260906044559 | 52 | 320 | 5.0 | 11.0 | 0.10 | 0.15 | 0.15 | 91 | 1021.9 |
| 20260906043102 | 52 | 338 | 7.0 | 12.0 | 0.10 | 0.15 | 0.15 | 90 | 1021.9 |
| 20260906041601 | 52 | 347 | 9.0 | 14.0 | 0.08 | 0.13 | 0.13 | 90 | 1021.8 |
| 20260906040056 | 53 | 175 | 4.0 | 9.0 | 0.02 | 0.07 | 0.07 | 87 | 1023.6 |
| 20260906034553 | 54 | 242 | 4.0 | 10.0 | 0.00 | 0.05 | 0.05 | 82 | 1022.9 |
| 20260906033106 | 54 | 291 | 2.0 | 4.0 | 0.00 | 0.05 | 0.05 | 81 | 1022.5 |
| 20260906031550 | 54 | 294 | 3.0 | 8.0 | 0.00 | 0.05 | 0.05 | 81 | 1022.2 |
| 20260906030050 | 53 | 338 | 3.0 | 5.0 | 0.00 | 0.05 | 0.05 | 82 | 1021.6 |
| 20260906024548 | 54 | 343 | 5.0 | 8.0 | 0.00 | 0.05 | 0.05 | 82 | 1021.3 |
| 20260906023051 | 54 | 331 | 4.0 | 6.0 | 0.00 | 0.05 | 0.05 | 81 | 1021.3 |
| 20260906021545 | 55 | 329 | 4.0 | 6.0 | 0.00 | 0.05 | 0.05 | 80 | 1021.3 |
| 20260906020056 | 56 | 331 | 2.0 | 9.0 | 0.00 | 0.05 | 0.05 | 78 | 1021.2 |
| 20260906014543 | 56 | 326 | 3.0 | 6.0 | 0.00 | 0.05 | 0.05 | 77 | 1021.2 |
| 20260906013050 | 57 | 336 | 4.0 | 9.0 | 0.00 | 0.05 | 0.05 | 75 | 1021.0 |
| 20260906011557 | 58 | 325 | 7.0 | 12.0 | 0.00 | 0.05 | 0.05 | 74 | 1021.0 |
| 20260906010044 | 59 | 337 | 7.0 | 13.0 | 0.00 | 0.05 | 0.05 | 72 | 1020.9 |
| 20260906004541 | 60 | 318 | 8.0 | 13.0 | 0.00 | 0.05 | 0.05 | 70 | 1021.1 |
| 20260906003041 | 60 | 324 | 7.0 | 13.0 | 0.00 | 0.05 | 0.05 | 72 | 1021.0 |
| 20260906001543 | 60 | 300 | 9.0 | 13.0 | 0.00 | 0.05 | 0.05 | 71 | 1021.0 |
| 20260906000051 | 60 | 310 | 7.0 | 13.0 | 0.00 | 0.05 | 0.05 | 69 | 1021.2 |
| 20260905234539 | 61 | 322 | 6.0 | 12.0 | 0.00 | 0.05 | 0.05 | 71 | 1021.2 |
| 20260905233041 | 60 | 360 | 8.0 | 17.0 | 0.00 | 0.05 | 0.05 | 71 | 1021.1 |
| 20260905231538 | 61 | 310 | 7.0 | 13.0 | 0.00 | 0.05 | 0.05 | 69 | 1021.0 |
| 20260905230037 | 60 | 350 | 8.0 | 14.0 | 0.00 | 0.05 | 0.05 | 73 | 1021.0 |
| 20260905224547 | 59 | 282 | 9.0 | 14.0 | 0.00 | 0.05 | 0.05 | 75 | 1021.0 |
| 20260905223036 | 61 | 288 | 10.0 | 15.0 | 0.00 | 0.05 | 0.05 | 74 | 1021.0 |
| 20260905221536 | 62 | 333 | 8.0 | 13.0 | 0.00 | 0.05 | 0.05 | 71 | 1021.0 |
| 20260905220034 | 61 | 333 | 4.0 | 12.0 | 0.00 | 0.05 | 0.05 | 72 | 1020.9 |
| 20260905214534 | 61 | 9 | 8.0 | 12.0 | 0.00 | 0.05 | 0.05 | 73 | 1021.0 |
| 20260905213033 | 59 | 311 | 7.0 | 12.0 | 0.00 | 0.05 | 0.05 | 74 | 1020.9 |
| 20260905211538 | 60 | 287 | 6.0 | 12.0 | 0.00 | 0.05 | 0.05 | 74 | 1021.0 |
| 20260905210031 | 60 | 300 | 5.0 | 11.0 | 0.00 | 0.05 | 0.05 | 77 | 1021.0 |
| 20260905204537 | 60 | 340 | 4.0 | 13.0 | 0.00 | 0.05 | 0.05 | 78 | 1021.0 |
| 20260905203031 | 59 | 335 | 8.0 | 14.0 | 0.00 | 0.05 | 0.05 | 80 | 1021.0 |
| 20260905201530 | 58 | 332 | 7.0 | 14.0 | 0.00 | 0.05 | 0.05 | 82 | 1021.2 |
| 20260905200032 | 58 | 328 | 9.0 | 15.0 | 0.00 | 0.05 | 0.05 | 83 | 1021.1 |
| 20260905194528 | 57 | 336 | 10.0 | 15.0 | 0.00 | 0.05 | 0.05 | 84 | 1021.1 |
| 20260905193028 | 57 | 341 | 11.0 | 14.0 | 0.00 | 0.05 | 0.05 | 85 | 1021.0 |
| 20260905191529 | 59 | 325 | 8.0 | 13.0 | 0.00 | 0.05 | 0.05 | 85 | 1021.1 |
| 20260905190027 | 58 | 311 | 9.0 | 13.0 | 0.00 | 0.05 | 0.05 | 88 | 1021.2 |
| 20260905184544 | 61 | 282 | 10.0 | 15.0 | 0.00 | 0.05 | 0.05 | 75 | 1021.3 |
| 20260905183039 | 60 | 219 | 2.0 | 4.0 | 0.00 | 0.05 | 0.05 | 70 | 1021.2 |
| 20260905181522 | 59 | 219 | 2.0 | 5.0 | 0.00 | 0.05 | 0.05 | 74 | 1021.2 |
| 20260905180019 | 58 | 219 | 2.0 | 4.0 | 0.00 | 0.05 | 0.05 | 79 | 1021.1 |
| 20260905174513 | 57 | 219 | 1.0 | 5.0 | 0.00 | 0.05 | 0.05 | 80 | 1021.1 |
| 20260905173011 | 56 | 251 | 3.0 | 5.0 | 0.00 | 0.05 | 0.05 | 84 | 1021.3 |
| 20260905171510 | 56 | 251 | 4.0 | 7.0 | 0.00 | 0.05 | 0.05 | 84 | 1021.2 |
| 20260905170010 | 56 | 240 | 7.0 | 11.0 | 0.00 | 0.05 | 0.05 | 82 | 1021.0 |
| 20260905164509 | 56 | 265 | 8.0 | 11.0 | 0.00 | 0.05 | 0.05 | 85 | 1021.2 |
| 20260905163006 | 56 | 205 | 3.0 | 5.0 | 0.00 | 0.05 | 0.05 | 82 | 1021.3 |
| 20260905161504 | 54 | 205 | 2.0 | 4.0 | 0.00 | 0.05 | 0.05 | 87 | 1021.0 |
| 20260905160003 | 54 | 205 | 2.0 | 4.0 | 0.00 | 0.05 | 0.05 | 87 | 1020.9 |
| 20260905154502 | 54 | 205 | 3.0 | 5.0 | 0.00 | 0.05 | 0.05 | 89 | 1020.6 |
| 20260905153002 | 53 | 205 | 1.0 | 5.0 | 0.01 | 0.05 | 0.05 | 92 | 1020.6 |
| 20260905151502 | 52 | 205 | 2.0 | 4.0 | 0.01 | 0.05 | 0.05 | 93 | 1020.8 |
| 20260905150100 | 51 | 205 | 3.0 | 8.0 | 0.02 | 0.05 | 0.05 | 92 | 1020.5 |
| 20260905144600 | 52 | 260 | 4.0 | 8.0 | 0.02 | 0.05 | 0.05 | 93 | 1020.6 |
| 20260905143100 | 50 | 241 | 3.0 | 4.0 | 0.03 | 0.04 | 0.04 | 93 | 1020.8 |
| 20260905141558 | 50 | 241 | 2.0 | 7.0 | 0.04 | 0.04 | 0.04 | 93 | 1021.0 |
| 20260905140057 | 49 | 259 | 6.0 | 8.0 | 0.03 | 0.03 | 0.03 | 92 | 1021.0 |
| 20260905134555 | 49 | 249 | 8.0 | 15.0 | 0.03 | 0.03 | 0.03 | 92 | 1021.2 |